Flag for Israel Weather past 2 weeks in Kfar Saba, Israel

Now
81 °F

Sunny.


Feels Like: 81 °F
Forecast: 71 / 86 °F
Wind: 6 mph from Northwest

Location: Dov Airport

Current Time: May 24, 2015 at 2:25:52 PM

Latest Report: May 24, 2015 at 1:50 PM


Visibility: 10 mi

Pressure: 29.89 "Hg

Humidity: 51%

Dew point: 61 °F

Location of Kfar SabaLocation

Historic Weather in Kfar Saba — Graph

°F

Kfar Saba temperature yesterday

Maximum temperature yesterday: 77 °F (at 10:50 AM)
Minimum temperature yesterday: 68 °F (at 6:00 AM)
Average temperature yesterday: 74 °F

Past Weeks' High & Low Weather Summary

 TemperatureHumidityPressure
High104 °F (May 18, 12:50 PM)88% (May 11, 4:50 AM)30.15 "Hg (May 11, 4:50 AM)
Low63 °F (May 16, 5:50 AM)6% (May 18, 12:50 PM)29.62 "Hg (May 9, 5:50 PM)
Average74 °F66%29.87 "Hg
* Reported May 9 12:50 PM — May 24 12:50 PM, Kfar Saba, Weather by CustomWeather, © 2015

Note: Actual official high and low records may vary slightly from our data, if they occured in-between our weather recording intervals... More about our weather records

Advertising

Kfar Saba weather history for previous 24 hours

 ConditionsComfort  
Time TempWeatherWind HumidityBarometerVisibility
12:50 PM
Sun, May 24
79 °FSunny.6 mph51%29.89 "Hg10 mi
11:50 AM81 °FSunny.8 mph39%29.92 "Hg10 mi
10:50 AM77 °FSunny.8 mph51%29.92 "Hg10 mi
9:50 AM75 °FSunny.8 mph54%29.92 "Hg10 mi
8:50 AM77 °FSunny.6 mph44%29.89 "Hg10 mi
7:50 AM73 °FSunny.5 mph57%29.92 "Hg10 mi
6:50 AM70 °FSunny.3 mph64%29.89 "Hg10 mi
6:00 AM66 °FClear.2 mph78%29.89 "Hg10 mi
10:50 PM
Sat, May 23
72 °FClear.3 mph73%29.92 "Hg10 mi
9:50 PM72 °FClear.No wind73%29.92 "Hg10 mi
8:50 PM72 °FClear.1 mph78%29.89 "Hg10 mi
7:50 PM72 °FSunny.2 mph83%29.89 "Hg10 mi
6:50 PM73 °FPassing clouds.6 mph78%29.89 "HgN/A
5:50 PM75 °FSunny.7 mph74%29.89 "Hg10 mi
4:50 PM75 °FSunny.9 mph74%29.89 "Hg10 mi
3:50 PM75 °FSunny.9 mph74%29.89 "Hg10 mi
2:50 PM77 °FSunny.13 mph69%29.89 "Hg10 mi
Weather by CustomWeather, © 2015

See weather overviewHow to use our weather pages